sat.trackr.live / text

‹ back to catalog

STARLINK-31396

NORAD 59409 · 2024-064M

PAYLOAD ACTIVE UNKNOWN

§ Identity

Operator
Country
US
Launch date
2024-04-05
Launch site
AFETR
Launch vehicle
Mass (kg)
RCS (m²)

Purposes: comms

External: N2YO · Heavens-Above · Gunter

§ Orbital elements

Epoch: 2026-09-21T08:50:36.015360Z

Period
94.27 min
Inclination
43.0041°
Eccentricity
0.0000952
Mean motion
15.27561278 rev/d
Perigee alt
482.5 km
Apogee alt
483.8 km
Semi-major
6,861.2 km
B*
-8.9099e-6
RAAN
20.5768°
Arg perigee
273.7439°
Mean anomaly
86.3304°
Rev number
13,921

§ Raw data

STARLINK-313961 59409U 24064M   26264.36847240 -.00000507  00000+0 -89099-5 0  99902 59409  43.0041  20.5768 0000952 273.7439  86.3304 15.27561278139214

JSON: /api/v1/satellites/59409 · /tle

For live sub-satellite position, see the globe view (requires WebGL).

§ Visibility from observer

Set your observer location to see the next 7 days of passes ≥ 10°. The values pass through the URL so the page stays shareable.

No JS? Fill the form by hand. The geolocation button needs JavaScript.